Location: Asheville, NC
(35.6000°N, 82.5500°W)
Time: 22:38:06
(UTC-05:00)

ISS - Pass Details

Date: 13 December 2017
Orbit: 402 x 407 km, 51.6° (Epoch: 18 January)

Event Time Altitude Azimuth Distance (km) Brightness Sun altitude
Rises 18:03:44 0° 324° (NW) 2,333 0.2 -9.3°
Reaches altitude 10° 18:06:23 10° 347° (NNW) 1,469 -1.1 -9.8°
Maximum altitude 18:08:34 16° 29° (NNE) 1,141 -2.0 -10.2°
Enters shadow 18:09:36 15° 51° (NE) 1,219 -2.0 -10.4°
